This is the latest recevied weather packets stored in our database for station/object K3RUP-1. If no packets are shown the sender has not sent any weather packets the latest 10 day(s).
| Time | Temp. | Humidity | Pressure | Rain* | Wind** | Luminosity | Snow |
|---|---|---|---|---|---|---|---|
| 1777906899 | 19.44° C | 45% | 1013.6 hPa | 0 mm | - | 477 W/m² | - |
| 1777906596 | 18.89° C | 45% | 1013.7 hPa | 0 mm | - | 124 W/m² | - |
| 1777906291 | 18.89° C | 45% | 1013.8 hPa | 0 mm | - | 190 W/m² | - |
| 1777905988 | 18.89° C | 48% | 1013.7 hPa | 0 mm | - | 128 W/m² | - |
| 1777905685 | 18.33° C | 47% | 1013.8 hPa | 0 mm | - | 187 W/m² | - |
| 1777905382 | 18.33° C | 49% | 1013.7 hPa | 0 mm | - | 465 W/m² | - |
| 1777905080 | 17.78° C | 48% | 1013.7 hPa | 0 mm | - | 66 W/m² | - |
| 1777904777 | 17.78° C | 47% | 1013.7 hPa | 0 mm | - | 110 W/m² | - |
| 1777904474 | 17.78° C | 48% | 1013.9 hPa | 0 mm | - | 72 W/m² | - |
| 1777904170 | 17.78° C | 46% | 1013.6 hPa | 0 mm | - | 237 W/m² | - |
| 1777903867 | 17.22° C | 49% | 1013.9 hPa | 0 mm | - | 563 W/m² | - |
| 1777903564 | 16.67° C | 50% | 1014 hPa | 0 mm | - | 146 W/m² | - |
| 1777903260 | 16.67° C | 51% | 1013.7 hPa | 0 mm | - | 104 W/m² | - |
| 1777902956 | 16.11° C | 52% | 1014 hPa | 0 mm | - | 101 W/m² | - |
| 1777902653 | 16.11° C | 53% | 1013.8 hPa | 0 mm | - | 100 W/m² | - |
| 1777902351 | 15.56° C | 51% | 1014 hPa | 0 mm | - | 51 W/m² | - |
| 1777902047 | 15.56° C | 53% | 1013.9 hPa | 0 mm | - | 53 W/m² | - |
| 1777901746 | 15.56° C | 53% | 1014.1 hPa | 0 mm | - | 50 W/m² | - |
| 1777901443 | 15° C | 53% | 1013.9 hPa | 0 mm | - | 49 W/m² | - |
| 1777901140 | 15° C | 55% | 1014 hPa | 0 mm | - | 53 W/m² | - |
| 1777900838 | 15° C | 55% | 1014 hPa | 0 mm | - | 46 W/m² | - |
| 1777900535 | 15° C | 55% | 1014.1 hPa | 0 mm | - | 49 W/m² | - |
| 1777900232 | 15° C | 56% | 1014 hPa | 0 mm | - | 47 W/m² | - |
| 1777899928 | 14.44° C | 57% | 1014.3 hPa | 0 mm | - | 79 W/m² | - |
| 1777899626 | 14.44° C | 58% | 1014.1 hPa | 0 mm | - | 55 W/m² | - |
* Rain latest hour (hover to see other rain measurements)
** Current wind speed in m/s (hover to see current wind gust speed)